GW3496 Weather Reports


time (UTC)temp
C
wind
direction
speed
KPH
gust
KPH
rain 1hr
cm
rain 24hr
cm
rain mn
cm
humidity
%
barometer
mb
20260831191556 31 23 3.2 8.0 0.00 0.00 0.00 65 1017.0
20260831190053 31 24 6.4 12.9 0.00 0.00 0.00 64 1016.9
20260831184552 31 34 4.8 11.3 0.00 0.00 0.00 63 1016.9
20260831183048 31 290 1.6 8.0 0.00 0.00 0.00 63 1016.9
20260831181552 31 112 8.0 12.9 0.00 0.00 0.00 62 1017.2
20260831180116 31 272 4.8 11.3 0.00 0.00 0.00 63 1017.5
20260831174551 31 160 8.0 16.1 0.00 0.00 0.00 64 1017.3
20260831173106 30 126 1.6 8.0 0.00 0.00 0.00 66 1017.5
20260831171554 31 85 3.2 12.9 0.00 0.00 0.00 66 1017.9
20260831170111 30 35 4.8 11.3 0.00 0.00 0.00 66 1017.7
20260831164547 30 57 0.0 11.3 0.00 0.00 0.00 67 1018.3
20260831163054 30 65 4.8 11.3 0.00 0.00 0.00 67 1018.4
20260831161554 30 355 0.0 12.9 0.00 0.00 0.00 69 1018.3
20260831160055 30 80 6.4 12.9 0.00 0.00 0.00 69 1018.2
20260831154621 28 37 6.4 14.5 0.00 0.00 0.00 71 1018.0
20260831153058 28 326 6.4 16.1 0.00 0.00 0.00 72 1018.0
20260831151552 28 52 3.2 9.7 0.00 0.00 0.00 72 1017.9
20260831150051 28 35 6.4 14.5 0.00 0.00 0.00 73 1017.9
20260831144535 28 51 6.4 14.5 0.00 0.00 0.00 76 1017.9
20260831143040 27 112 1.6 12.9 0.00 0.00 0.00 76 1017.7
20260831141539 27 55 3.2 9.7 0.00 0.00 0.00 78 1017.8
20260831140038 27 44 3.2 8.0 0.00 0.00 0.00 79 1017.7
20260831134539 26 360 4.8 12.9 0.00 0.00 0.00 81 1017.8
20260831133034 25 103 1.6 6.4 0.00 0.00 0.00 82 1017.7
20260831131535 25 316 0.0 9.7 0.00 0.00 0.00 86 1017.6
20260831130033 24 324 3.2 8.0 0.00 0.00 0.00 89 1017.8
20260831124538 23 340 0.0 4.8 0.00 0.00 0.00 91 1018.0
20260831123037 23 297 0.0 6.4 0.00 0.00 0.00 92 1017.8
20260831121537 22 5 1.6 12.9 0.00 0.00 0.00 93 1017.4
20260831120037 22 313 1.6 8.0 0.00 0.00 0.00 93 1017.3
20260831114538 22 308 1.6 6.4 0.00 0.00 0.00 93 1017.4
20260831113047 22 286 3.2 6.4 0.00 0.00 0.00 93 1017.2
20260831111534 22 299 0.0 4.8 0.00 0.00 0.00 93 1017.0
20260831110036 22 290 3.2 6.4 0.00 0.00 0.00 93 1016.7
20260831104538 22 18 0.0 0.0 0.00 0.00 0.00 92 1016.4
20260831103034 22 350 0.0 0.0 0.00 0.00 0.00 92 1016.3
20260831101534 22 83 0.0 0.0 0.00 0.00 0.00 92 1016.2
20260831100037 22 83 0.0 0.0 0.00 0.00 0.00 92 1016.3
20260831094536 22 83 0.0 0.0 0.00 0.00 0.00 92 1016.3
20260831093036 22 83 0.0 0.0 0.00 0.00 0.00 92 1016.3
20260831091539 22 83 0.0 0.0 0.00 0.00 0.00 92 1016.2
20260831090039 22 83 0.0 0.0 0.00 0.00 0.00 92 1016.2
20260831084545 22 83 0.0 0.0 0.00 0.00 0.00 92 1016.3
20260831083039 22 83 0.0 0.0 0.00 0.00 0.00 92 1016.2
20260831081543 22 83 0.0 0.0 0.00 0.00 0.00 92 1016.2
20260831080040 22 83 0.0 0.0 0.00 0.00 0.00 92 1016.1
20260831074539 22 83 0.0 0.0 0.00 0.00 0.00 91 1016.2
20260831073042 23 83 0.0 0.0 0.00 0.00 0.00 91 1016.1
20260831071539 23 83 0.0 0.0 0.00 0.00 0.00 91 1016.1
20260831070054 23 83 0.0 0.0 0.00 0.00 0.00 91 1016.1
20260831064544 23 83 0.0 0.0 0.00 0.00 0.00 91 1016.2
20260831063047 23 83 0.0 3.2 0.00 0.00 0.00 91 1016.2
20260831061543 23 84 0.0 0.0 0.00 0.00 0.00 91 1016.2
20260831060047 23 5 0.0 4.8 0.00 0.00 0.00 91 1016.3
20260831054546 23 298 0.0 4.8 0.00 0.00 0.00 90 1016.3
20260831053058 23 70 0.0 0.0 0.00 0.00 0.00 90 1016.4
20260831051548 23 35 0.0 0.0 0.00 0.00 0.00 89 1016.6
20260831050047 23 35 0.0 6.4 0.00 0.00 0.00 88 1016.7
20260831044540 24 55 0.0 0.0 0.00 0.00 0.00 86 1016.4
20260831043052 24 243 0.0 6.4 0.00 0.00 0.00 86 1016.2
20260831041555 24 252 4.8 9.7 0.00 0.00 0.00 87 1016.4
20260831040055 24 205 6.4 12.9 0.00 0.00 0.00 88 1016.4
20260831034553 24 198 9.7 12.9 0.00 0.00 0.00 87 1016.5
20260831033107 24 246 0.0 4.8 0.00 0.00 0.00 86 1017.0
20260831031548 24 261 6.4 11.3 0.00 0.00 0.00 86 1017.2
20260831030056 24 311 0.0 0.0 0.00 0.00 0.00 86 1017.2
20260831024552 24 313 0.0 12.9 0.00 0.00 0.00 86 1017.5
20260831023052 24 277 9.7 20.9 0.00 0.00 0.00 87 1017.6
20260831021545 23 277 0.0 0.0 0.00 0.00 0.00 87 1017.4
20260831020108 23 301 0.0 0.0 0.00 0.00 0.00 88 1017.6
20260831014553 23 40 0.0 0.0 0.00 0.00 0.00 88 1017.4
20260831013055 23 58 0.0 0.0 0.00 0.00 0.00 87 1017.3
20260831011547 24 29 0.0 0.0 0.00 0.00 0.00 86 1017.2
20260831010053 25 19 0.0 0.0 0.00 0.00 0.00 84 1017.3
20260831004557 25 21 0.0 0.0 0.00 0.00 0.00 79 1017.2
20260831003053 26 65 0.0 0.0 0.00 0.00 0.00 76 1017.0
20260831001549 26 174 3.2 9.7 0.00 0.00 0.00 75 1016.7
20260831000055 26 192 4.8 9.7 0.00 0.00 0.00 76 1016.5
20260830234551 26 134 0.0 0.0 0.00 0.00 0.00 74 1016.6
20260830233051 26 294 0.0 22.5 0.00 0.00 0.00 73 1017.0
20260830231554 27 268 14.5 27.4 0.00 0.00 0.00 69 1017.3
20260830230050 28 293 20.9 33.8 0.00 0.00 0.00 66 1017.4
20260830224543 30 232 6.4 12.9 0.00 0.00 0.00 66 1017.2
20260830223055 30 202 8.0 16.1 0.00 0.00 0.00 65 1016.8
20260830221550 30 203 8.0 20.9 0.00 0.00 0.00 65 1016.7
20260830220058 30 207 9.7 16.1 0.00 0.00 0.00 64 1016.6
20260830214547 30 220 9.7 24.1 0.00 0.00 0.00 63 1016.6
20260830213052 30 196 9.7 19.3 0.00 0.00 0.00 63 1016.5
20260830211559 31 155 11.3 20.9 0.00 0.00 0.00 62 1016.7
20260830210050 31 238 11.3 22.5 0.00 0.00 0.00 62 1016.6
20260830204555 31 169 11.3 24.1 0.00 0.00 0.00 62 1016.4
20260830203052 31 194 8.0 17.7 0.00 0.00 0.00 62 1016.7
20260830201551 31 143 9.7 17.7 0.00 0.00 0.00 61 1016.9
20260830200053 31 252 9.7 19.3 0.00 0.00 0.00 62 1017.0
20260830194603 30 176 12.9 24.1 0.00 0.00 0.00 62 1017.1
20260830193055 30 146 8.0 22.5 0.00 0.00 0.00 63 1017.2